User: anonymous   Login
Location: Broad Creek
(39.7000°N, 76.2570°W)
Time: 02:07:46
(UTC-04:00)
Language:

ETS-7 - Orbit

View from above orbital plane
View from above orbital plane
View from above satellite
View from above satellite

Ground track
Ground track

The orbit data is extracted from the following two-line orbital elements,

1 25064U 97074B   15087.71569532  .00065571  00000-0  61281-3 0  9998
2 25064 034.9546 187.6011 0002234 220.7767 265.0630 15.66089277965504
Epoch (UTC): 28 March 2015 17:10:36
Eccentricity: 0.0002234
inclination: 34.9546°
perigee height: 368 km
apogee height: 371 km
right ascension of ascending node: 187.6011°
argument of perigee: 220.7767°
revolutions per day: 15.66089277
mean anomaly at epoch: 265.0630°
orbit number at epoch: 96550

The dashed part of the orbit path shows where the satellite is in the earth's shadow,  

DLR